Flag for Germany Weather past 2 weeks in Wittenberg, Saxony-Anhalt, Germany

Now
43 °F

Partly cloudy.


Feels Like: 37 °F
Forecast: 40 / 48 °F
Wind: 10 mph from West

Location: Holzdorf

Current Time: Mar 27, 2015 at 11:38:54 PM

Latest Report: Mar 27, 2015 at 10:20 PM


Visibility: 5 mi

Pressure: 30.07 "Hg

Humidity: 93%

Dew point: 41 °F

Location of WittenbergLocation

Historic Weather in Wittenberg — Graph

°F

Wittenberg temperature yesterday

Maximum temperature yesterday: 52 °F (at 12:20 AM)
Minimum temperature yesterday: 43 °F (at 7:20 PM)
Average temperature yesterday: 46 °F

Past Weeks' High & Low Weather Summary

 TemperatureHumidityPressure
High64 °F (Mar 25, 3:20 PM)100% (Mar 13, 2:20 AM)30.42 "Hg (Mar 13, 2:20 AM)
Low21 °F (Mar 20, 6:20 AM)23% (Mar 18, 5:00 PM)29.62 "Hg (Mar 26, 12:20 AM)
Average42 °F74%30.14 "Hg
* Reported Mar 12 9:20 PM — Mar 27 9:20 PM, Wittenberg, Weather by CustomWeather, © 2015

Note: Actual official high and low records may vary slightly from our data, if they occured in-between our weather recording intervals... More about our weather records

Advertising

Wittenberg weather history for previous 24 hours

 ConditionsComfort  
Time TempWeatherWind HumidityBarometerVisibility
9:20 PM
Fri, Mar 27
43 °FPassing clouds.9 mph87%30.07 "Hg4 mi
8:20 PM43 °FPartly cloudy.10 mph87%30.04 "Hg6 mi
7:20 PM45 °FLight rain. Passing clouds.14 mph76%30.01 "HgN/A
6:20 PM45 °FLight rain. More clouds than sun.7 mph76%30.01 "HgN/A
5:20 PM46 °FScattered showers. Broken clouds.12 mph76%29.98 "HgN/A
4:20 PM48 °FBroken clouds.12 mph76%29.95 "HgN/A
3:20 PM50 °FScattered showers. Broken clouds.18 mph58%29.95 "HgN/A
2:20 PM52 °FPartly sunny.16 mph58%29.92 "HgN/A
1:20 PM43 °FSprinkles. Partly sunny.13 mph87%29.92 "HgN/A
1:00 PM48 °FSprinkles. Partly sunny.23 mph58%29.92 "Hg6 mi
12:20 PM52 °FSprinkles. Partly sunny.15 mph58%29.89 "HgN/A
11:20 AM52 °FPartly sunny.12 mph58%29.89 "HgN/A
10:20 AM48 °FPartly sunny.13 mph71%29.89 "HgN/A
9:20 AM46 °FBroken clouds.12 mph76%29.89 "HgN/A
8:20 AM43 °FBroken clouds.5 mph87%29.86 "Hg5 mi
7:20 AM41 °FBroken clouds.5 mph93%29.86 "Hg4 mi
6:20 AM39 °FDrizzle. Broken clouds.5 mph100%29.83 "Hg4 mi
5:20 AM41 °FLight rain. Passing clouds.5 mph87%29.80 "Hg4 mi
4:20 AM41 °FFog.7 mph93%29.80 "Hg3 mi
3:47 AM41 °FFog.6 mph93%29.80 "Hg3 mi
3:20 AM43 °FFog.7 mph87%29.80 "Hg2 mi
2:20 AM43 °FFog.5 mph93%29.77 "Hg2 mi
1:20 AM43 °FFog.1 mph93%29.77 "Hg2 mi
12:20 AM43 °FFog.1 mph93%29.77 "Hg2 mi
11:20 PM
Thu, Mar 26
43 °FLight rain. Fog.5 mph93%29.77 "Hg2 mi
Weather by CustomWeather, © 2015

See weather overviewHow to use our weather pages